| time (UTC) | temp F | wind direction | speed knots | gust knots | rain 1hr in | rain 24hr in | rain mn in | humidity % | barometer mb |
| 20260902210002 | 94 | 148 | 2.6 | 7.8 | 0.00 | 0.00 | 0.00 | 55 | 1012.0 |
| 20260902204500 | 94 | 146 | 4.3 | 7.8 | 0.00 | 0.00 | 0.00 | 53 | 1012.0 |
| 20260902203107 | 94 | 135 | 2.6 | 8.7 | 0.00 | 0.00 | 0.00 | 53 | 1011.9 |
| 20260902201559 | 94 | 136 | 2.6 | 7.8 | 0.00 | 0.00 | 0.00 | 54 | 1012.0 |
| 20260902200058 | 94 | 195 | 1.7 | 8.7 | 0.00 | 0.00 | 0.00 | 52 | 1012.2 |
| 20260902194556 | 94 | 148 | 1.7 | 7.0 | 0.00 | 0.00 | 0.00 | 52 | 1012.3 |
| 20260902193100 | 94 | 149 | 3.5 | 7.8 | 0.00 | 0.00 | 0.00 | 53 | 1012.3 |
| 20260902191602 | 95 | 171 | 0.9 | 6.1 | 0.00 | 0.00 | 0.00 | 53 | 1012.5 |
| 20260902190049 | 93 | 160 | 2.6 | 8.7 | 0.00 | 0.00 | 0.00 | 55 | 1012.5 |
| 20260902184549 | 93 | 134 | 2.6 | 7.0 | 0.00 | 0.00 | 0.00 | 55 | 1012.7 |
| 20260902183047 | 92 | 219 | 1.7 | 7.8 | 0.00 | 0.00 | 0.00 | 58 | 1012.7 |
| 20260902181547 | 93 | 141 | 1.7 | 6.1 | 0.00 | 0.00 | 0.00 | 56 | 1012.8 |
| 20260902180041 | 92 | 103 | 0.9 | 7.8 | 0.00 | 0.00 | 0.00 | 60 | 1012.8 |
| 20260902174550 | 91 | 169 | 2.6 | 7.8 | 0.00 | 0.00 | 0.00 | 59 | 1012.9 |
| 20260902173038 | 91 | 158 | 1.7 | 5.2 | 0.00 | 0.00 | 0.00 | 59 | 1012.9 |
| 20260902171539 | 90 | 195 | 1.7 | 4.3 | 0.00 | 0.00 | 0.00 | 60 | 1013.0 |
| 20260902170035 | 89 | 164 | 0.9 | 5.2 | 0.00 | 0.00 | 0.00 | 61 | 1013.2 |
| 20260902164534 | 88 | 110 | 0.9 | 5.2 | 0.00 | 0.00 | 0.00 | 65 | 1013.3 |
| 20260902163028 | 87 | 130 | 0.9 | 4.3 | 0.00 | 0.00 | 0.00 | 67 | 1013.3 |
| 20260902161530 | 86 | 124 | 1.7 | 5.2 | 0.00 | 0.00 | 0.00 | 69 | 1013.4 |
| 20260902160029 | 85 | 143 | 1.7 | 4.3 | 0.00 | 0.00 | 0.00 | 68 | 1013.6 |
| 20260902154522 | 85 | 131 | 1.7 | 5.2 | 0.00 | 0.00 | 0.00 | 69 | 1013.5 |
| 20260902151514 | 83 | 188 | 1.7 | 5.2 | 0.00 | 0.00 | 0.00 | 72 | 1013.8 |
| 20260902150012 | 83 | 155 | 0.9 | 4.3 | 0.00 | 0.00 | 0.00 | 73 | 1013.7 |
| 20260902144510 | 82 | 191 | 0.9 | 5.2 | 0.00 | 0.00 | 0.00 | 74 | 1013.6 |
| 20260902143009 | 82 | 18 | 0.0 | 2.6 | 0.00 | 0.00 | 0.00 | 73 | 1014.0 |
| 20260902141508 | 82 | 191 | 0.9 | 3.5 | 0.00 | 0.00 | 0.00 | 75 | 1013.7 |
| 20260902140004 | 81 | 136 | 1.7 | 3.5 | 0.00 | 0.00 | 0.00 | 78 | 1013.8 |
| 20260902134504 | 80 | 138 | 0.9 | 3.5 | 0.00 | 0.00 | 0.00 | 79 | 1013.7 |
| 20260902133057 | 79 | 150 | 0.9 | 4.3 | 0.00 | 0.00 | 0.00 | 81 | 1013.7 |
| 20260902131556 | 77 | 94 | 0.0 | 1.7 | 0.00 | 0.00 | 0.00 | 84 | 1013.9 |
| 20260902130055 | 76 | 152 | 0.9 | 3.5 | 0.00 | 0.00 | 0.00 | 85 | 1014.0 |
| 20260902124551 | 76 | 133 | 0.0 | 2.6 | 0.00 | 0.00 | 0.00 | 86 | 1014.0 |
| 20260902123051 | 75 | 146 | 0.0 | 0.9 | 0.00 | 0.00 | 0.00 | 88 | 1013.9 |
| 20260902121550 | 74 | 137 | 0.0 | 0.9 | 0.00 | 0.00 | 0.00 | 90 | 1013.7 |
| 20260902120049 | 73 | 125 | 0.0 | 0.9 | 0.00 | 0.00 | 0.00 | 91 | 1013.7 |
| 20260902114614 | 72 | 126 | 0.0 | 0.0 | 0.00 | 0.00 | 0.00 | 91 | 1013.7 |
| 20260902113055 | 73 | 126 | 0.0 | 0.9 | 0.00 | 0.00 | 0.00 | 90 | 1013.6 |
| 20260902111557 | 73 | 124 | 0.0 | 0.9 | 0.00 | 0.00 | 0.00 | 90 | 1013.7 |
| 20260902110051 | 73 | 123 | 0.0 | 0.0 | 0.00 | 0.00 | 0.00 | 91 | 1013.7 |
| 20260902104547 | 72 | 121 | 0.0 | 0.0 | 0.00 | 0.00 | 0.00 | 91 | 1013.9 |
| 20260902103059 | 73 | 124 | 0.0 | 0.0 | 0.00 | 0.00 | 0.00 | 89 | 1013.7 |
| 20260902101544 | 74 | 124 | 0.0 | 0.0 | 0.00 | 0.00 | 0.00 | 88 | 1013.8 |
| 20260902100104 | 74 | 122 | 0.0 | 0.9 | 0.00 | 0.00 | 0.00 | 88 | 1013.7 |
| 20260902094541 | 75 | 124 | 0.0 | 0.9 | 0.00 | 0.00 | 0.00 | 87 | 1013.7 |
| 20260902093102 | 75 | 122 | 0.0 | 0.9 | 0.00 | 0.00 | 0.00 | 86 | 1013.7 |
| 20260902091539 | 74 | 152 | 0.0 | 1.7 | 0.00 | 0.00 | 0.00 | 89 | 1013.4 |
| 20260902090038 | 73 | 321 | 0.0 | 0.0 | 0.00 | 0.00 | 0.00 | 93 | 1013.4 |
| 20260902084541 | 73 | 152 | 0.0 | 0.0 | 0.00 | 0.00 | 0.00 | 93 | 1013.3 |
| 20260902083039 | 73 | 151 | 0.0 | 0.0 | 0.00 | 0.00 | 0.00 | 94 | 1013.3 |
| 20260902081536 | 73 | 152 | 0.0 | 0.0 | 0.00 | 0.00 | 0.00 | 94 | 1013.3 |
| 20260902080034 | 73 | 153 | 0.0 | 0.0 | 0.00 | 0.00 | 0.00 | 93 | 1013.3 |
| 20260902074538 | 73 | 153 | 0.0 | 0.0 | 0.00 | 0.00 | 0.00 | 93 | 1013.3 |
| 20260902073032 | 73 | 151 | 0.0 | 0.0 | 0.00 | 0.00 | 0.00 | 92 | 1013.2 |
| 20260902071531 | 74 | 152 | 0.0 | 0.0 | 0.00 | 0.00 | 0.00 | 91 | 1013.1 |
| 20260902070026 | 74 | 153 | 0.0 | 0.0 | 0.00 | 0.00 | 0.00 | 90 | 1013.2 |
| 20260902064526 | 75 | 151 | 0.0 | 0.0 | 0.00 | 0.00 | 0.00 | 90 | 1013.3 |
| 20260902063025 | 75 | 150 | 0.0 | 0.0 | 0.00 | 0.00 | 0.00 | 90 | 1013.4 |
| 20260902061526 | 75 | 151 | 0.0 | 0.9 | 0.00 | 0.00 | 0.00 | 91 | 1013.3 |
| 20260902060021 | 75 | 153 | 0.0 | 0.0 | 0.00 | 0.00 | 0.00 | 89 | 1013.2 |
| 20260902054532 | 76 | 152 | 0.0 | 0.9 | 0.00 | 0.00 | 0.00 | 90 | 1013.2 |
| 20260902053020 | 76 | 153 | 0.0 | 0.0 | 0.00 | 0.00 | 0.00 | 89 | 1013.2 |
| 20260902051515 | 77 | 153 | 0.0 | 0.9 | 0.00 | 0.00 | 0.00 | 87 | 1013.3 |
| 20260902050020 | 77 | 133 | 0.0 | 0.9 | 0.00 | 0.00 | 0.00 | 86 | 1013.3 |
| 20260902044510 | 77 | 147 | 0.0 | 0.9 | 0.00 | 0.00 | 0.00 | 86 | 1013.3 |
| 20260902043013 | 78 | 129 | 0.0 | 0.9 | 0.00 | 0.00 | 0.00 | 84 | 1013.2 |
| 20260902041519 | 78 | 127 | 0.0 | 0.0 | 0.00 | 0.00 | 0.00 | 84 | 1013.2 |
| 20260902040006 | 79 | 129 | 0.0 | 0.9 | 0.00 | 0.00 | 0.00 | 83 | 1013.3 |
| 20260902034507 | 79 | 118 | 0.0 | 0.9 | 0.00 | 0.00 | 0.00 | 82 | 1013.4 |
| 20260902033006 | 80 | 113 | 0.0 | 0.9 | 0.00 | 0.00 | 0.00 | 81 | 1013.4 |
| 20260902031505 | 80 | 114 | 0.0 | 0.9 | 0.00 | 0.00 | 0.00 | 80 | 1013.5 |
| 20260902030005 | 81 | 148 | 0.0 | 3.5 | 0.00 | 0.00 | 0.00 | 80 | 1013.5 |
| 20260902024503 | 81 | 148 | 0.0 | 0.0 | 0.00 | 0.00 | 0.00 | 80 | 1013.4 |
| 20260902023004 | 82 | 160 | 0.0 | 0.9 | 0.00 | 0.00 | 0.00 | 78 | 1013.4 |
| 20260902021512 | 83 | 238 | 0.0 | 2.6 | 0.00 | 0.00 | 0.00 | 76 | 1013.3 |
| 20260902020002 | 83 | 136 | 0.9 | 2.6 | 0.00 | 0.00 | 0.00 | 76 | 1013.2 |
| 20260902014502 | 84 | 136 | 0.0 | 3.5 | 0.00 | 0.00 | 0.00 | 75 | 1013.0 |
| 20260902013001 | 84 | 166 | 0.9 | 4.3 | 0.00 | 0.00 | 0.00 | 74 | 1012.9 |
| 20260902011502 | 84 | 167 | 1.7 | 5.2 | 0.00 | 0.00 | 0.00 | 74 | 1012.7 |
| 20260902004559 | 85 | 167 | 0.0 | 1.7 | 0.00 | 0.00 | 0.00 | 74 | 1012.4 |
| 20260902003058 | 86 | 170 | 0.0 | 3.5 | 0.00 | 0.00 | 0.00 | 73 | 1012.2 |
| 20260902001607 | 87 | 172 | 0.0 | 4.3 | 0.00 | 0.00 | 0.00 | 72 | 1012.3 |
| 20260902000056 | 88 | 164 | 0.9 | 4.3 | 0.00 | 0.00 | 0.00 | 71 | 1012.4 |
| 20260901234605 | 89 | 157 | 0.9 | 3.5 | 0.00 | 0.00 | 0.00 | 70 | 1012.5 |
| 20260901233105 | 90 | 136 | 0.0 | 2.6 | 0.00 | 0.00 | 0.00 | 69 | 1012.5 |
| 20260901231554 | 90 | 138 | 0.0 | 3.5 | 0.00 | 0.00 | 0.00 | 65 | 1012.6 |
| 20260901230053 | 91 | 134 | 0.9 | 3.5 | 0.00 | 0.00 | 0.00 | 64 | 1012.6 |
| 20260901224553 | 91 | 139 | 0.0 | 3.5 | 0.00 | 0.00 | 0.00 | 65 | 1012.6 |
| 20260901223053 | 91 | 129 | 1.7 | 5.2 | 0.00 | 0.00 | 0.00 | 64 | 1012.7 |
| 20260901221551 | 91 | 176 | 0.9 | 4.3 | 0.00 | 0.00 | 0.00 | 64 | 1012.8 |
| 20260901220050 | 92 | 194 | 0.0 | 3.5 | 0.00 | 0.00 | 0.00 | 63 | 1012.7 |
| 20260901214602 | 93 | 139 | 0.0 | 5.2 | 0.00 | 0.00 | 0.00 | 62 | 1012.7 |
| 20260901213122 | 93 | 163 | 1.7 | 8.7 | 0.00 | 0.00 | 0.00 | 60 | 1012.7 |
| 20260901211549 | 93 | 221 | 0.0 | 5.2 | 0.00 | 0.00 | 0.00 | 61 | 1012.7 |